DateTimeUTC,F1_A11,F1_S11,BsB_S11,BsG_S11,BsR_S11,BbsB_S11,BbsG_S11,BbsR_S11,BaB_A11,BaG_A11,BaR_A11,Tu_S11,T_S11,Uu_S11,U_S11,P_S11,T1_A11
2021-01-13T18:00:00Z,00000200,21000000,,,,,,,0000.23,0000.17,0000.28,17.2,24.2,00.3,00.2,0647.0,31.0
2021-01-13T18:01:00Z,00000200,21000000,,,,,,,-000.02,0000.23,-000.04,17.2,24.2,00.3,00.2,0647.0,31.0
2021-01-13T18:02:00Z,00000200,21000000,,,,,,,-000.14,-000.45,0000.01,17.2,24.2,00.3,00.2,0647.0,31.0
2021-01-13T18:03:00Z,00000200,61000000,,,,,,,0000.19,0000.43,-000.08,17.2,24.2,00.3,00.2,0647.0,30.9
2021-01-13T18:04:00Z,00000200,41000000,0000.64,0000.33,-000.36,-000.31,0000.19,-000.01,0000.34,0000.36,-000.02,17.4,24.0,00.5,00.3,0647.9,31.0
2021-01-13T18:05:00Z,00000200,01000000,0000.36,-000.00,-000.11,0000.22,0000.01,0000.10,-000.22,-000.29,0000.37,17.4,24.0,00.5,00.3,0648.0,31.0
2021-01-13T18:06:00Z,00000200,01000000,0000.46,0000.07,0000.01,0000.30,0000.20,-000.22,0000.43,0000.31,0000.20,17.5,24.0,00.6,00.4,0648.0,31.0
2021-01-13T18:07:00Z,00000200,01000000,0000.07,0000.21,0000.05,0000.08,-000.10,-000.27,-000.16,-000.12,-000.56,17.5,24.0,00.6,00.4,0648.0,31.0
2021-01-13T18:08:00Z,00000200,01000000,0000.79,0000.17,0000.09,-000.32,-000.06,0000.02,-000.28,-000.03,0000.36,17.5,24.0,00.5,00.3,0648.0,31.0
2021-01-13T18:09:00Z,00000200,01000000,0000.39,0000.27,-000.30,0000.15,0000.01,0000.22,0000.33,0000.01,-000.19,17.5,24.0,00.5,00.3,0648.0,31.0
2021-01-13T18:10:00Z,00000200,01000000,0000.35,0000.19,0000.30,-000.00,0000.10,0000.05,-000.23,-000.17,0000.42,17.5,24.0,00.6,00.4,0648.0,30.9
2021-01-13T18:11:00Z,00000200,01000000,0000.28,0000.20,0000.25,0000.37,0000.09,-000.06,0000.16,0000.48,-000.25,17.5,24.0,00.5,00.3,0648.0,30.9
2021-01-13T18:12:00Z,00000200,01000000,0000.62,-000.06,0000.02,0000.03,0000.26,0000.00,0000.19,-000.50,0000.17,17.5,24.0,00.5,00.3,0648.0,31.0
2021-01-13T18:13:00Z,00000200,01000000,0000.51,0000.30,-000.49,-000.31,0000.20,0000.05,-000.03,0000.51,0000.06,17.5,24.0,00.6,00.4,0648.0,31.0
2021-01-13T18:14:00Z,00000200,01000000,-000.04,-000.05,0000.16,0000.47,-000.08,0000.15,-000.11,-000.06,-000.35,17.5,24.0,00.6,00.4,0648.0,31.0
2021-01-13T18:15:00Z,00000200,01000000,-000.15,0000.03,-000.21,0000.36,-000.01,0000.01,0000.08,-000.13,0000.30,17.5,24.0,00.5,00.4,0648.0,31.0
2021-01-13T18:16:00Z,00000200,01000000,0000.44,0000.16,0000.25,0000.33,0000.07,0000.07,0000.28,0000.33,-000.06,17.5,24.0,00.5,00.4,0648.0,30.9
2021-01-13T18:17:00Z,00000200,01000000,0000.59,0000.47,0000.23,-000.22,0000.04,0000.25,0000.08,-000.01,0000.22,17.5,23.9,00.5,00.4,0647.9,30.9
2021-01-13T18:18:00Z,00000200,01000000,0000.14,0000.35,-000.08,0000.59,-000.12,0000.03,-000.05,0000.04,-000.07,17.4,23.9,00.5,00.3,0647.9,30.9
2021-01-13T18:19:00Z,00000200,01000000,0000.01,0000.01,-000.03,0000.40,0000.09,-000.07,-000.21,-000.13,-000.14,17.4,23.9,00.6,00.4,0647.9,30.9
2021-01-13T18:20:00Z,00000200,01000000,0000.85,0000.27,-000.26,-000.23,-000.08,-000.08,0000.22,-000.05,0000.09,17.4,23.9,00.6,00.4,0647.9,30.9
2021-01-13T18:21:00Z,00000200,01000000,0000.13,0000.17,0000.06,0000.04,0000.02,0000.10,0000.21,0000.01,-000.09,17.4,23.9,00.6,00.4,0647.9,30.9
2021-01-13T18:22:00Z,00000200,01000000,0000.03,0000.18,0000.11,0000.20,-000.12,0000.30,-000.00,0000.42,0000.28,17.4,23.9,00.7,00.5,0647.9,30.9
2021-01-13T18:23:00Z,00000200,01000000,0000.44,0000.16,0000.24,0000.51,0000.11,0000.27,0000.15,-000.04,0000.25,17.4,23.9,00.7,00.5,0647.8,30.9
2021-01-13T18:24:00Z,00000200,01000000,0000.04,0000.08,0000.03,0000.68,0000.23,0000.30,0000.26,0000.31,-000.00,17.4,23.9,00.7,00.5,0647.8,30.9
2021-01-13T18:25:00Z,00000200,01000000,0000.38,0000.11,-000.06,0000.24,0000.18,-000.03,-000.18,-000.06,0000.09,17.4,23.9,00.7,00.4,0647.8,30.9
2021-01-13T18:26:00Z,00000200,01000000,0000.35,0000.54,-000.09,-000.22,0000.24,-000.14,0000.38,0000.22,0000.20,17.4,23.9,00.7,00.5,0647.8,30.9
2021-01-13T18:27:00Z,00000200,01000000,0000.70,0000.18,0000.16,-000.51,0000.19,0000.24,-000.34,0000.19,-000.43,17.4,23.9,00.7,00.5,0647.8,30.9
2021-01-13T18:28:00Z,00000200,01000000,0000.81,0000.10,-000.22,0000.05,0000.02,-000.00,0000.52,-000.10,0000.41,17.4,23.9,00.8,00.5,0647.8,30.9
2021-01-13T18:29:00Z,00000200,01000000,0000.31,0000.01,-000.02,0000.22,-000.22,-000.10,0000.14,0000.28,0000.39,17.4,23.9,00.9,00.6,0647.7,30.9
2021-01-13T18:30:00Z,00000200,01000000,-000.28,0000.08,0000.10,-000.02,0000.12,0000.11,-000.01,-000.09,-000.14,17.4,23.8,00.9,00.6,0647.7,30.9
2021-01-13T18:31:00Z,00000200,01000000,0000.09,0000.18,-000.24,0000.47,-000.06,0000.25,-000.11,0000.13,-000.05,17.4,23.8,01.0,00.7,0647.7,30.9
2021-01-13T18:32:00Z,00000200,01000000,0000.21,0000.32,-000.01,0000.22,0000.10,0000.14,0000.08,-000.22,-000.56,17.4,23.8,01.0,00.7,0647.7,30.9
2021-01-13T18:33:00Z,00000200,01000000,0000.66,0000.35,-000.23,-000.42,0000.33,-000.12,0000.05,0000.18,0000.48,17.4,23.8,01.0,00.7,0647.7,30.9
2021-01-13T18:34:00Z,00000200,01000000,0000.59,-000.06,0000.14,0000.20,0000.01,0000.20,0000.37,0000.26,0000.29,17.4,23.8,01.1,00.7,0647.7,30.9
2021-01-13T18:35:00Z,00000200,01000000,0000.53,0000.05,0000.04,-000.17,0000.19,0000.15,0000.04,0000.35,0000.35,17.4,23.8,01.1,00.7,0647.7,31.0
2021-01-13T18:36:00Z,00000200,01000000,0000.54,0000.03,-000.14,0000.01,0000.04,0000.08,0000.33,0000.13,0000.16,17.5,23.9,01.0,00.7,0647.7,31.0
2021-01-13T18:37:00Z,00000200,01000000,0000.50,-000.04,-000.21,-000.24,0000.05,0000.08,-000.38,-000.18,-000.09,17.6,23.9,01.0,00.7,0647.7,31.0
2021-01-13T18:38:00Z,00000200,01000000,0001.02,0000.09,0000.12,-000.16,-000.04,0000.14,0000.48,-000.02,0000.23,17.6,23.9,01.0,00.7,0647.7,31.0
2021-01-13T18:39:00Z,00000200,01000000,0000.03,-000.02,-000.13,-000.02,0000.37,0000.08,-000.09,0000.23,-000.28,17.6,23.9,01.0,00.7,0647.7,31.0
2021-01-13T18:40:00Z,00000200,01000000,0000.71,0000.08,-000.08,0000.09,-000.02,0000.09,0000.08,0000.17,0000.20,17.6,24.0,01.1,00.7,0647.7,31.0
2021-01-13T18:41:00Z,00000200,01000000,0000.41,0000.30,-000.05,0000.17,-000.03,-000.13,0000.29,0000.18,-000.37,17.6,24.0,01.1,00.7,0647.7,31.0
2021-01-13T18:42:00Z,00000200,01000000,0000.52,0000.19,0000.05,-000.19,0000.01,0000.23,-000.25,-000.02,-000.16,17.6,24.0,01.2,00.8,0647.7,31.0
2021-01-13T18:43:00Z,00000200,01000000,0000.03,-000.26,-000.36,-000.15,0000.33,-000.02,0000.02,-000.28,0000.18,17.6,24.0,01.1,00.8,0647.7,31.0
2021-01-13T18:44:00Z,00000200,01000000,0000.40,-000.23,0000.14,-000.08,0000.11,0000.05,-000.28,0000.20,0000.26,17.6,24.0,01.1,00.7,0647.7,31.0
2021-01-13T18:45:00Z,00000200,01000000,0000.38,0000.10,0000.50,-000.11,-000.18,0000.22,0000.18,-000.36,0000.05,17.6,23.9,01.1,00.8,0647.7,31.0
2021-01-13T18:46:00Z,00000200,01000000,0000.65,0000.25,0000.06,-000.10,0000.18,-000.10,0000.51,0000.31,0000.04,17.6,23.9,01.1,00.8,0647.6,31.0
2021-01-13T18:47:00Z,00000200,01000000,0000.57,0000.24,0000.01,-000.04,-000.04,0000.23,-000.25,0000.23,-000.18,17.6,23.9,01.2,00.8,0647.7,31.0
2021-01-13T18:48:00Z,00000200,01000000,0000.18,0000.31,0000.14,-000.40,0000.10,0000.03,0000.30,-000.25,0000.36,17.5,23.9,01.1,00.8,0647.6,31.0
2021-01-13T18:49:00Z,00000200,01000000,0000.41,0000.10,0000.02,0000.32,0000.15,0000.03,0000.08,0000.41,0000.26,17.5,23.9,01.2,00.8,0647.7,31.0
2021-01-13T18:50:00Z,00000200,01000000,0000.41,-000.07,0000.02,0000.06,0000.05,0000.11,-000.11,0000.12,0000.06,17.6,23.9,01.2,00.8,0647.7,31.0
2021-01-13T18:51:00Z,00000200,01000000,0000.86,0000.08,-000.02,-000.24,-000.04,0000.11,0000.20,0000.02,-000.43,17.6,24.0,01.2,00.8,0647.7,31.0
2021-01-13T18:52:00Z,00000200,01000000,0000.39,-000.03,-000.24,0000.12,-000.04,-000.08,0000.15,0000.22,0000.07,17.6,24.0,01.2,00.8,0647.7,31.0
2021-01-13T18:53:00Z,00000200,01000000,-000.09,0000.16,-000.04,0000.36,-000.06,0000.02,0000.15,-000.40,0000.24,17.7,24.0,01.2,00.8,0647.7,31.0
2021-01-13T18:54:00Z,00000200,01000000,0000.27,0000.15,-000.54,0000.02,-000.27,0000.00,0000.16,-000.06,0000.09,17.7,24.0,01.3,00.9,0647.7,31.0
2021-01-13T18:55:00Z,00000200,01000000,-000.11,0000.24,-000.08,-000.44,0000.05,-000.02,-000.10,0000.09,-000.31,17.7,24.0,01.2,00.8,0647.7,31.0
2021-01-13T18:56:00Z,00000200,01000000,0000.47,0000.41,-000.24,0000.17,0000.10,-000.15,0000.01,0000.25,0000.27,17.6,24.0,01.2,00.8,0647.7,31.0
2021-01-13T18:57:00Z,00000200,41000000,,,,,,,-000.17,-000.15,-000.46,17.6,24.0,01.2,00.8,0647.6,31.0
2021-01-13T18:58:00Z,00000200,61000000,,,,,,,-000.20,0000.00,0000.35,17.3,24.1,00.9,00.6,0646.8,31.0
2021-01-13T18:59:00Z,00000200,21000000,,,,,,,-000.02,-000.40,-000.10,17.3,24.2,00.9,00.6,0646.8,31.0
